CW4490 Weather Reports


time (UTC)temp
C
wind
direction
speed
KPH
gust
KPH
rain 1hr
cm
rain 24hr
cm
rain mn
cm
humidity
%
barometer
mb
20260906234910 27 142 0.0 1.6 0.05 0.69 0.69 88 1006.5
20260906234414 26 360 0.0 1.6 0.10 0.69 0.69 87 1006.5
20260906233936 26 157 0.0 1.6 0.33 0.69 0.69 87 1006.5
20260906233400 26 360 0.0 0.0 0.41 0.69 0.69 87 1006.5
20260906232905 26 167 0.0 0.0 0.53 0.69 0.69 86 1006.5
20260906232410 26 360 0.0 3.2 0.58 0.69 0.69 85 1006.6
20260906231917 26 142 0.0 3.2 0.69 0.69 0.69 85 1006.6
20260906231358 26 140 0.0 3.2 0.69 0.69 0.69 84 1006.6
20260906230902 26 140 0.0 4.8 0.69 0.69 0.69 83 1006.8
20260906230357 26 155 1.6 4.8 0.69 0.69 0.69 82 1006.8
20260906225839 26 211 3.2 6.4 0.69 0.69 0.69 79 1006.8
20260906225346 26 360 1.6 14.5 0.66 0.66 0.66 76 1007.1
20260906224850 27 215 8.0 14.5 0.64 0.64 0.64 75 1007.1
20260906224459 27 150 4.8 14.5 0.58 0.58 0.58 76 1007.1
20260906223941 28 360 1.6 11.3 0.36 0.36 0.36 74 1006.8
20260906223505 30 140 3.2 16.1 0.28 0.28 0.28 71 1006.9
20260906222947 32 108 6.4 16.1 0.15 0.15 0.15 62 1007.0
20260906222433 35 132 1.6 9.7 0.10 0.10 0.10 55 1006.6
20260906221938 35 186 3.2 9.7 0.00 0.00 0.00 48 1006.6
20260906221444 35 204 3.2 17.7 0.00 0.00 0.00 46 1006.6
20260906220927 35 224 6.4 17.7 0.00 0.00 0.00 45 1006.7
20260906220424 36 252 3.2 14.5 0.00 0.00 0.00 45 1006.7
20260906215927 36 204 3.2 9.7 0.00 0.00 0.00 45 1006.7
20260906215432 35 264 3.2 9.7 0.00 0.00 0.00 46 1007.0
20260906214940 35 234 6.4 11.3 0.00 0.00 0.00 45 1007.0
20260906214425 35 245 4.8 11.3 0.00 0.00 0.00 45 1007.0
20260906213909 35 220 4.8 11.3 0.00 0.00 0.00 45 1007.1
20260906213416 35 176 4.8 11.3 0.00 0.00 0.00 46 1007.1
20260906212857 35 248 4.8 11.3 0.00 0.00 0.00 46 1007.1
20260906212404 35 109 4.8 11.3 0.00 0.00 0.00 46 1007.2
20260906211931 34 238 6.4 9.7 0.00 0.00 0.00 47 1007.2
20260906211354 33 175 4.8 9.7 0.00 0.00 0.00 48 1007.2
20260906210858 33 134 4.8 14.5 0.00 0.00 0.00 48 1007.2
20260906210354 34 145 3.2 14.5 0.00 0.00 0.00 48 1007.3
20260906205837 34 148 3.2 8.0 0.00 0.00 0.00 46 1007.3
20260906205341 34 305 3.2 8.0 0.00 0.00 0.00 46 1007.7
20260906204846 33 202 4.8 8.0 0.00 0.00 0.00 48 1007.7
20260906204454 33 149 3.2 8.0 0.00 0.00 0.00 49 1007.7
20260906203956 33 175 4.8 8.0 0.00 0.00 0.00 48 1007.7
20260906203522 33 209 1.6 6.4 0.00 0.00 0.00 47 1007.7
20260906202943 33 144 1.6 9.7 0.00 0.00 0.00 48 1007.7
20260906202445 33 134 3.2 9.7 0.00 0.00 0.00 48 1007.8
20260906201932 33 204 4.8 8.0 0.00 0.00 0.00 48 1007.8
20260906201436 33 105 3.2 11.3 0.00 0.00 0.00 48 1007.8
20260906200922 33 126 4.8 11.3 0.00 0.00 0.00 48 1008.0
20260906200439 33 77 4.8 8.0 0.00 0.00 0.00 48 1008.0
20260906195923 33 131 3.2 9.7 0.00 0.00 0.00 47 1008.0
20260906195425 34 163 1.6 9.7 0.00 0.00 0.00 47 1008.2
20260906194910 34 159 3.2 9.7 0.00 0.00 0.00 46 1008.2
20260906194414 35 110 6.4 16.1 0.00 0.00 0.00 45 1008.2
20260906193918 35 128 4.8 16.1 0.00 0.00 0.00 44 1008.3
20260906193403 35 203 4.8 16.1 0.00 0.00 0.00 45 1008.3
20260906192907 35 194 6.4 16.1 0.00 0.00 0.00 45 1008.2
20260906192433 35 113 4.8 11.3 0.00 0.00 0.00 46 1008.4
20260906191858 35 336 6.4 11.3 0.00 0.00 0.00 44 1008.4
20260906191403 34 238 1.6 12.9 0.00 0.00 0.00 45 1008.4
20260906190845 34 300 6.4 12.9 0.00 0.00 0.00 44 1008.7
20260906190342 34 16 3.2 9.7 0.00 0.00 0.00 44 1008.7
20260906185849 34 119 6.4 14.5 0.00 0.00 0.00 44 1008.7
20260906185351 34 298 3.2 14.5 0.00 0.00 0.00 46 1008.8
20260906184837 34 219 3.2 9.7 0.00 0.00 0.00 46 1008.8
20260906184449 33 227 4.8 12.9 0.00 0.00 0.00 45 1008.8
20260906183957 33 265 6.4 12.9 0.00 0.00 0.00 43 1008.8
20260906183501 33 232 4.8 16.1 0.00 0.00 0.00 45 1008.8
20260906182948 33 185 6.4 16.1 0.00 0.00 0.00 46 1008.8
20260906182450 33 239 4.8 9.7 0.00 0.00 0.00 47 1009.2
20260906181934 33 240 4.8 9.7 0.00 0.00 0.00 48 1009.2
20260906181440 33 136 4.8 8.0 0.00 0.00 0.00 50 1009.1
20260906180946 32 321 1.6 9.7 0.00 0.00 0.00 51 1009.5
20260906180421 32 254 4.8 11.3 0.00 0.00 0.00 50 1009.5
20260906175948 32 265 4.8 11.3 0.00 0.00 0.00 51 1009.5
20260906175432 32 119 3.2 11.3 0.00 0.00 0.00 51 1009.8
20260906174917 32 205 0.0 11.3 0.00 0.00 0.00 51 1009.8
20260906174420 32 253 1.6 4.8 0.00 0.00 0.00 52 1009.8
20260906173908 32 259 3.2 11.3 0.00 0.00 0.00 52 1010.1
20260906173413 32 190 4.8 11.3 0.00 0.00 0.00 52 1010.1
20260906172916 32 228 6.4 11.3 0.00 0.00 0.00 53 1010.1
20260906172401 31 294 3.2 8.0 0.00 0.00 0.00 55 1010.4
20260906171906 31 192 4.8 9.7 0.00 0.00 0.00 56 1010.4
20260906171350 31 142 3.2 11.3 0.00 0.00 0.00 56 1010.4
20260906170855 31 141 4.8 11.3 0.00 0.00 0.00 56 1010.6
20260906170353 31 232 3.2 9.7 0.00 0.00 0.00 57 1010.6
20260906165839 31 150 3.2 9.7 0.00 0.00 0.00 57 1010.6
20260906165343 31 73 1.6 9.7 0.00 0.00 0.00 57 1010.6
20260906164849 31 131 4.8 8.0 0.00 0.00 0.00 59 1010.6
20260906164354 30 77 4.8 8.0 0.00 0.00 0.00 58 1010.6
20260906163957 30 132 1.6 6.4 0.00 0.00 0.00 57 1010.8
20260906163442 30 62 1.6 6.4 0.00 0.00 0.00 64 1010.7
20260906162949 29 229 3.2 6.4 0.00 0.00 0.00 66 1010.7
20260906162450 29 360 1.6 4.8 0.00 0.00 0.00 68 1010.8
20260906161933 29 360 3.2 4.8 0.00 0.00 0.00 68 1010.8
20260906161439 28 217 0.0 1.6 0.00 0.00 0.00 70 1010.8
20260906160925 28 222 0.0 6.4 0.00 0.00 0.00 70 1010.5
20260906160422 28 223 1.6 6.4 0.00 0.00 0.00 70 1010.5
20260906155943 28 236 1.6 4.8 0.00 0.00 0.00 72 1010.5
20260906155446 28 281 1.6 4.8 0.00 0.00 0.00 72 1010.4
20260906154932 28 166 1.6 6.4 0.00 0.00 0.00 72 1010.3
20260906154414 28 225 3.2 6.4 0.00 0.00 0.00 72 1010.3
20260906153919 28 161 0.0 4.8 0.00 0.00 0.00 72 1010.3
20260906153407 28 200 1.6 4.8 0.00 0.00 0.00 73 1010.3
20260906152911 27 252 1.6 4.8 0.00 0.00 0.00 73 1010.3
20260906152431 27 360 1.6 4.8 0.00 0.00 0.00 73 1010.2
20260906151900 27 235 1.6 4.8 0.00 0.00 0.00 74 1010.2
20260906151405 27 206 3.2 4.8 0.00 0.00 0.00 76 1010.2
20260906150849 27 157 0.0 4.8 0.00 0.00 0.00 77 1009.8
20260906150345 27 230 1.6 4.8 0.00 0.00 0.00 78 1009.8
20260906145848 27 155 0.0 3.2 0.00 0.00 0.00 79 1009.9
20260906145355 27 360 1.6 4.8 0.00 0.00 0.00 79 1009.9
20260906144840 26 212 1.6 4.8 0.00 0.00 0.00 80 1009.9
20260906144343 26 181 0.0 0.0 0.00 0.00 0.00 79 1009.9
20260906143948 26 167 0.0 0.0 0.00 0.00 0.00 79 1009.8
20260906143451 26 151 0.0 4.8 0.00 0.00 0.00 79 1009.8
20260906142939 26 146 1.6 4.8 0.00 0.00 0.00 79 1009.8
20260906142443 26 192 1.6 3.2 0.00 0.00 0.00 79 1009.6
20260906141950 26 348 0.0 0.0 0.00 0.00 0.00 78 1009.6
20260906141434 26 348 0.0 0.0 0.00 0.00 0.00 79 1009.6
20260906140939 26 348 0.0 0.0 0.00 0.00 0.00 79 1009.5
20260906140438 26 348 0.0 0.0 0.00 0.00 0.00 79 1009.5
20260906135942 26 348 0.0 0.0 0.00 0.00 0.00 79 1009.6
20260906135429 26 351 0.0 0.0 0.00 0.00 0.00 79 1009.5
20260906134915 25 9 0.0 0.0 0.00 0.00 0.00 79 1009.5
20260906134419 25 9 0.0 0.0 0.00 0.00 0.00 79 1009.5
20260906133906 25 248 0.0 0.0 0.00 0.00 0.00 80 1009.4
20260906133435 25 248 0.0 0.0 0.00 0.00 0.00 80 1009.4
20260906132916 25 248 0.0 0.0 0.00 0.00 0.00 80 1009.4
20260906132423 25 248 0.0 0.0 0.00 0.00 0.00 81 1009.2
20260906131907 25 248 0.0 0.0 0.00 0.00 0.00 81 1009.2
20260906131351 25 248 0.0 0.0 0.00 0.00 0.00 82 1009.2
20260906130900 25 248 0.0 0.0 0.00 0.00 0.00 82 1009.0
20260906130359 24 248 0.0 0.0 0.00 0.00 0.00 82 1009.0
20260906125843 24 247 0.0 0.0 0.00 0.00 0.00 82 1009.1
20260906125350 24 247 0.0 0.0 0.00 0.00 0.00 82 1008.8
20260906124855 24 247 0.0 0.0 0.00 0.00 0.00 82 1008.8
20260906124339 24 247 0.0 0.0 0.00 0.00 0.00 82 1008.8
20260906123953 24 246 0.0 0.0 0.00 0.00 0.00 82 1008.7
20260906123457 24 246 0.0 0.0 0.00 0.00 0.00 82 1008.7
20260906122943 24 246 0.0 0.0 0.00 0.00 0.00 82 1008.7
20260906122447 24 246 0.0 0.0 0.00 0.00 0.00 82 1008.3
20260906121934 24 246 0.0 0.0 0.00 0.00 0.00 81 1008.3
20260906121457 24 246 0.0 0.0 0.00 0.00 0.00 81 1008.3
20260906120940 24 248 0.0 0.0 0.00 0.00 0.00 81 1008.1
20260906120437 24 246 0.0 0.0 0.00 0.00 0.00 80 1008.1
20260906115920 24 246 0.0 0.0 0.00 0.00 0.00 80 1008.2
20260906115424 24 246 0.0 0.0 0.00 0.00 0.00 80 1007.9
20260906114953 25 246 0.0 0.0 0.00 0.00 0.00 80 1007.9
20260906114436 25 246 0.0 0.0 0.00 0.00 0.00 80 1007.9
20260906113921 25 246 0.0 0.0 0.00 0.00 0.00 79 1007.6
20260906113406 25 246 0.0 0.0 0.00 0.00 0.00 79 1007.6
20260906112910 25 246 0.0 0.0 0.00 0.00 0.00 79 1007.6
20260906112417 25 246 0.0 0.0 0.00 0.00 0.00 79 1007.6
20260906111901 25 246 0.0 0.0 0.00 0.00 0.00 79 1007.6
20260906111404 25 246 0.0 0.0 0.00 0.00 0.00 79 1007.6
20260906110907 25 246 0.0 0.0 0.00 0.00 0.00 79 1007.5
20260906110346 25 246 0.0 0.0 0.00 0.00 0.00 79 1007.5
20260906105850 25 246 0.0 0.0 0.00 0.00 0.00 79 1007.6
20260906105357 25 246 0.0 0.0 0.00 0.00 0.00 79 1007.5
20260906104845 25 246 0.0 0.0 0.00 0.00 0.00 78 1007.5
20260906104349 25 246 0.0 0.0 0.00 0.00 0.00 78 1007.5
20260906103957 25 246 0.0 0.0 0.00 0.00 0.00 78 1007.5
20260906103442 25 246 0.0 0.0 0.00 0.00 0.00 78 1007.5
20260906103008 25 246 0.0 0.0 0.00 0.00 0.00 78 1007.5
20260906102511 25 246 0.0 0.0 0.00 0.00 0.00 77 1007.2
20260906101935 25 246 0.0 0.0 0.00 0.00 0.00 77 1007.2
20260906101505 25 246 0.0 0.0 0.00 0.00 0.00 77 1007.2
20260906100945 25 246 0.0 0.0 0.00 0.00 0.00 77 1007.2
20260906100425 25 246 0.0 0.0 0.00 0.00 0.00 77 1007.2
20260906095928 25 246 0.0 0.0 0.00 0.00 0.00 77 1007.2
20260906095454 25 246 0.0 0.0 0.00 0.00 0.00 77 1007.4
20260906094921 25 246 0.0 0.0 0.00 0.00 0.00 77 1007.4
20260906094425 25 245 0.0 0.0 0.00 0.00 0.00 76 1007.4
20260906093909 26 245 0.0 0.0 0.00 0.00 0.00 76 1007.4
20260906093414 26 245 0.0 0.0 0.00 0.00 0.00 76 1007.4
20260906092920 26 245 0.0 0.0 0.00 0.00 0.00 75 1007.4
20260906092403 26 245 0.0 0.0 0.00 0.00 0.00 75 1007.3
20260906091909 26 245 0.0 0.0 0.00 0.00 0.00 75 1007.3
20260906091352 26 245 0.0 0.0 0.00 0.00 0.00 75 1007.3
20260906090857 26 245 0.0 0.0 0.00 0.00 0.00 75 1007.4
20260906090415 26 245 0.0 0.0 0.00 0.00 0.00 74 1007.4
20260906085857 26 245 0.0 0.0 0.00 0.00 0.00 74 1007.4
20260906085339 26 245 0.0 0.0 0.00 0.00 0.00 74 1007.2
20260906084842 26 245 0.0 0.0 0.00 0.00 0.00 74 1007.2
20260906084346 27 173 0.0 0.0 0.00 0.00 0.00 74 1007.2
20260906083852 27 173 0.0 0.0 0.00 0.00 0.00 73 1007.3
20260906083539 27 173 0.0 0.0 0.00 0.00 0.00 73 1007.3
20260906083025 27 173 0.0 0.0 0.00 0.00 0.00 73 1007.3
20260906082506 27 186 0.0 4.8 0.00 0.00 0.00 73 1007.2
20260906082010 27 186 1.6 4.8 0.00 0.00 0.00 72 1007.2
20260906081456 27 168 1.6 4.8 0.00 0.00 0.00 72 1007.2
20260906081020 27 360 1.6 6.4 0.00 0.00 0.00 72 1007.5
20260906080456 27 280 0.0 6.4 0.00 0.00 0.00 71 1007.5
20260906080007 27 360 0.0 4.8 0.00 0.00 0.00 71 1007.5
20260906075448 27 360 0.0 4.8 0.00 0.00 0.00 71 1007.7
20260906075015 27 360 1.6 4.8 0.00 0.00 0.00 71 1007.7
20260906074443 27 198 0.0 6.4 0.00 0.00 0.00 71 1007.7
20260906073948 28 161 3.2 6.4 0.00 0.00 0.00 70 1007.7
20260906073432 28 238 1.6 6.4 0.00 0.00 0.00 71 1007.7
20260906072938 28 165 3.2 6.4 0.00 0.00 0.00 71 1007.7
20260906072441 28 163 1.6 8.0 0.00 0.00 0.00 71 1008.0
20260906071927 28 148 1.6 8.0 0.00 0.00 0.00 71 1008.0
20260906071434 28 188 1.6 4.8 0.00 0.00 0.00 71 1008.0
20260906070936 28 360 0.0 9.7 0.00 0.00 0.00 71 1008.2
20260906070412 28 288 3.2 9.7 0.00 0.00 0.00 70 1008.2
20260906065920 28 360 1.6 8.0 0.00 0.00 0.00 70 1008.2
20260906065404 28 164 1.6 6.4 0.00 0.00 0.00 70 1008.2
20260906064930 28 159 1.6 6.4 0.00 0.00 0.00 70 1008.2
20260906064433 28 207 1.6 6.4 0.00 0.00 0.00 70 1008.2
20260906063915 28 175 3.2 8.0 0.00 0.00 0.00 69 1008.2
20260906063358 28 182 3.2 8.0 0.00 0.00 0.00 69 1008.2
20260906062902 28 155 1.6 4.8 0.00 0.00 0.00 69 1008.2
20260906062349 28 212 1.6 4.8 0.00 0.00 0.00 69 1008.3
20260906061856 28 221 1.6 12.9 0.00 0.00 0.00 69 1008.3
20260906061338 28 263 3.2 12.9 0.00 0.00 0.00 69 1008.3
20260906060842 28 163 3.2 8.0 0.00 0.00 0.00 69 1008.5
20260906060339 28 213 3.2 8.0 0.00 0.00 0.00 69 1008.5
20260906055927 28 189 3.2 8.0 0.00 0.00 0.00 69 1008.5
20260906055453 28 180 3.2 9.7 0.00 0.00 0.00 69 1008.3
20260906054938 28 159 3.2 9.7 0.00 0.00 0.00 68 1008.3
20260906054441 28 173 1.6 8.0 0.00 0.00 0.00 68 1008.3
20260906053923 28 169 1.6 4.8 0.00 0.00 0.00 68 1008.3
20260906053409 29 188 3.2 9.7 0.00 0.00 0.00 67 1008.3
20260906052937 29 178 4.8 11.3 0.00 0.00 0.00 67 1008.3
20260906052358 29 173 3.2 16.1 0.00 0.00 0.00 67 1008.6
20260906051905 29 360 3.2 11.3 0.00 0.00 0.00 67 1008.6
20260906051409 29 360 4.8 11.3 0.00 0.00 0.00 67 1008.6
20260906050853 29 360 4.8 9.7 0.00 0.00 0.00 66 1008.8
20260906050413 29 360 4.8 17.7 0.00 0.00 0.00 66 1008.8
20260906045854 29 360 4.8 17.7 0.00 0.00 0.00 66 1008.7
20260906045337 29 360 3.2 16.1 0.00 0.00 0.00 65 1008.7
20260906044842 29 360 4.8 16.1 0.00 0.00 0.00 65 1008.7
20260906044348 29 360 6.4 8.0 0.00 0.00 0.00 64 1008.7
20260906043832 29 360 3.2 9.7 0.00 0.00 0.00 64 1008.7
20260906043446 29 236 4.8 9.7 0.00 0.00 0.00 63 1008.7
20260906042957 29 360 3.2 9.7 0.00 0.00 0.00 63 1008.7
20260906042441 29 360 3.2 9.7 0.00 0.00 0.00 63 1008.3
20260906042006 29 360 3.2 11.3 0.00 0.00 0.00 62 1008.4
20260906041452 30 192 1.6 11.3 0.00 0.00 0.00 62 1008.4
20260906040931 30 169 4.8 8.0 0.00 0.00 0.00 62 1008.7
20260906040449 30 360 0.0 4.8 0.00 0.00 0.00 61 1008.7
20260906035934 30 360 3.2 8.0 0.00 0.00 0.00 61 1008.7
20260906035418 30 360 3.2 8.0 0.00 0.00 0.00 61 1008.3
20260906034924 30 360 4.8 9.7 0.00 0.00 0.00 61 1008.3
20260906034428 30 360 4.8 9.7 0.00 0.00 0.00 60 1008.3
20260906033914 30 154 1.6 11.3 0.00 0.00 0.00 60 1008.3
20260906033420 30 142 1.6 11.3 0.00 0.00 0.00 59 1008.3
20260906032906 30 190 3.2 16.1 0.00 0.00 0.00 59 1008.3
20260906032410 30 103 1.6 16.1 0.00 0.00 0.00 58 1008.2
20260906031856 31 144 3.2 14.5 0.00 0.00 0.00 58 1008.2
20260906031358 31 360 4.8 14.5 0.00 0.00 0.00 58 1008.2
20260906030902 31 126 6.4 11.3 0.00 0.00 0.00 57 1007.9
20260906030401 31 292 4.8 16.1 0.00 0.00 0.00 57 1007.9
20260906025848 31 187 9.7 17.7 0.00 0.00 0.00 56 1007.9
20260906025352 31 185 8.0 17.7 0.00 0.00 0.00 56 1007.6
20260906024837 31 179 6.4 12.9 0.00 0.00 0.00 56 1007.6
20260906024340 31 178 3.2 11.3 0.00 0.00 0.00 56 1007.6
20260906023906 31 159 1.6 8.0 0.00 0.00 0.00 56 1007.2
20260906022943 31 111 1.6 11.3 0.00 0.00 0.00 55 1007.2
20260906022447 31 63 8.0 14.5 0.00 0.00 0.00 55 1006.6
20260906021933 31 123 8.0 14.5 0.00 0.00 0.00 55 1006.7
20260906021435 32 360 3.2 9.7 0.00 0.00 0.00 55 1006.7
20260906020944 32 123 3.2 19.3 0.00 0.00 0.00 55 1006.7
20260906020441 32 84 8.0 19.3 0.00 0.00 0.00 54 1006.7
20260906015926 32 173 6.4 17.7 0.00 0.00 0.00 54 1006.7
20260906015433 32 131 6.4 17.7 0.00 0.00 0.00 54 1006.5
20260906014919 32 140 6.4 17.7 0.00 0.00 0.00 53 1006.5
20260906014425 32 65 3.2 17.7 0.00 0.00 0.00 52 1006.5
20260906013911 32 118 6.4 17.7 0.00 0.00 0.00 52 1006.1
20260906013418 33 207 6.4 17.7 0.00 0.00 0.00 51 1006.1
20260906012941 33 125 8.0 16.1 0.00 0.00 0.00 49 1006.1
20260906012407 33 128 6.4 9.7 0.00 0.00 0.00 48 1006.0
20260906011913 33 140 3.2 17.7 0.00 0.00 0.00 48 1006.0
20260906011358 33 74 6.4 17.7 0.00 0.00 0.00 48 1006.0
20260906010906 33 119 1.6 16.1 0.00 0.00 0.00 47 1006.2
20260906010404 33 93 4.8 16.1 0.00 0.00 0.00 47 1006.2
20260906005847 33 76 4.8 14.5 0.00 0.00 0.00 47 1006.0
20260906005353 33 122 6.4 9.7 0.00 0.00 0.00 45 1006.0
20260906004901 33 165 1.6 4.8 0.00 0.00 0.00 43 1006.0
20260906004344 34 111 1.6 9.7 0.00 0.00 0.00 42 1006.0
20260906003848 34 115 1.6 9.7 0.00 0.00 0.00 42 1005.9
20260906003418 35 115 4.8 11.3 0.00 0.00 0.00 42 1005.9
20260906003008 35 115 4.8 11.3 0.00 0.00 0.00 42 1006.0
20260906002454 35 117 4.8 8.0 0.00 0.00 0.00 41 1005.9
20260906001935 35 142 3.2 8.0 0.00 0.00 0.00 41 1005.9
20260906001442 35 90 4.8 9.7 0.00 0.00 0.00 40 1005.9
20260906000947 35 96 3.2 9.7 0.00 0.00 0.00 40 1005.8
20260906000442 35 74 3.2 4.8 0.00 0.00 0.00 39 1005.8
20260905235926 35 144 3.2 8.0 0.00 0.00 0.00 39 1005.8
20260905235429 35 127 1.6 8.0 0.00 0.00 0.00 39 1005.6